This demonstration page uses our WeatherBlox Daily Observations layout. Learn more.

Left ArrowRight Arrow

36.17497, -115.13722

Hourly Observations for June 8, 2021

Temp ( °F °C ) Dew Point ( °F °C ) Humidity (%) Winds ( mph kmh ) Pressure ( in mb ) Visibility ( mi km ) Precip ( " mm )
12:53 am 00:53 Clear 79 26.1 30 -1.1 17 17 SSE 9 15 29.65 1004 10 16 N/A
1:53 am 01:53 Clear 77 25 32 undefined 19 19 SE 5 7 29.66 1005 10 16 N/A
2:53 am 02:53 Clear 75 23.9 35 1.7 23 23 SSE 15 24 29.66 1005 10 16 N/A
3:53 am 03:53 Clear 74 23.3 35 1.7 24 24 S 16 26 29.67 1005 10 16 N/A
4:53 am 04:53 Clear 72 22.2 35 1.7 26 26 SE 13 20 29.69 1005 10 16 N/A
5:53 am 05:53 Sunny 72 22.2 35 1.7 26 26 SSE 15 24 29.71 1006 10 16 N/A
6:53 am 06:53 Sunny 73 22.8 36 2.2 26 26 S 12 19 29.74 1007 10 16 N/A
7:53 am 07:53 Sunny 76 24.4 35 1.7 23 23 S 13 20 29.76 1008 10 16 N/A
8:53 am 08:53 Sunny 79 26.1 33 0.6 19 19 S 12 19 29.79 1009 10 16 N/A
9:53 am 09:53 Sunny 83 28.3 27 -2.8 13 13 S 18 30 29.79 1009 10 16 N/A
10:53 am 10:53 Sunny 86 30 25 -3.9 11 11 SSE 18 30 29.78 1009 10 16 N/A
11:53 am 11:53 Sunny 90 32.2 24 -4.4 9 9 S 18 30 29.78 1008 10 16 N/A
12:53 pm 12:53 Sunny 92 33.3 23 -5 8 8 SSW 18 30 29.77 1008 10 16 N/A
1:53 pm 13:53 Sunny 93 33.9 23 -5 8 8 S 16 26 29.77 1008 10 16 N/A
2:53 pm 14:53 Sunny 94 34.4 23 -5 8 8 SSW 22 35 29.76 1008 10 16 N/A
3:53 pm 15:53 Sunny 95 35 24 -4.4 8 8 S 20 31 29.75 1008 10 16 N/A
4:53 pm 16:53 Sunny 95 35 24 -4.4 8 8 S 21 33 29.76 1008 10 16 N/A
5:53 pm 17:53 Sunny 93 33.9 25 -3.9 8 8 SSW 12 19 29.76 1008 10 16 N/A
6:53 pm 18:53 Sunny 92 33.3 26 -3.3 9 9 SSW 16 26 29.77 1008 10 16 N/A
7:53 pm 19:53 Sunny 90 32.2 25 -3.9 9 9 SW 18 30 29.79 1009 10 16 N/A
8:53 pm 20:53 Clear 88 31.1 30 -1.1 12 12 SSW 13 20 29.80 1009 10 16 N/A
9:53 pm 21:53 Clear 87 30.6 32 undefined 14 14 SW 12 19 29.83 1010 10 16 N/A
10:53 pm 22:53 Clear 85 29.4 29 -1.7 13 13 SW 7 11 29.84 1010 10 16 N/A
11:53 pm 23:53 Clear 84 28.9 30 -1.1 14 14 SW 9 15 29.84 1010 10 16 N/A

Powered by AerisWeather